• Join FlightAware (Why Join?)
  • Login
  • US Flag 
01:23PM EDT


 

Airport Tracker/Info


-or-


 

Live Flight TrackerFlight Track Log ✈ AWI3551 ✈ 22-May-2013 ✈ KBUF - KPHL

Flight Track Log - Related Links

Times and Time Zones

All times are in EDT time to prevent confusion due to time zone crossing. See the AWI3551 flight status page for this flight to view local times or setup timezone preferences in your user account.

Time Position Orientation Groundspeed Altitude Reporting Facility
EDT Latitude Longitude Course Direction KTS MPH feet Rate Location/Type
06:05AM 42.9333 -78.7500 174° South 145 167 1,700  Level Buffalo TRACON
06:06AM 42.9000 -78.7667 200° South 151 174 2,600 1,380 Climbing Buffalo TRACON
06:07AM 42.6240 -78.6848 172° South  Level FlightAware Approximate
06:07AM 42.8500 -78.8000 206° Southwest 224 258 4,100  Level Buffalo TRACON
06:07AM 42.8050 -78.7947 175° South 293 337 5,400 1,980 Climbing Cleveland Center
06:08AM 42.5213 -78.6647 173° South  Level FlightAware Approximate
06:08AM 42.7275 -78.7772 171° South 299 344 7,500  Level Cleveland Center
06:09AM 42.4182 -78.6500 180° South  Level FlightAware Approximate
06:09AM 42.6500 -78.7597 171° South 291 335 9,300  Level Cleveland Center
06:10AM 42.3148 -78.6426 174° South  Level FlightAware Approximate
06:10AM 42.5831 -78.7389 167° South 285 328 11,300  Level Cleveland Center
06:11AM 42.4972 -78.7161 169° South 294 338 13,100 1,800 Climbing Cleveland Center
06:12AM 42.4072 -78.6936 170° South 317 365 15,000 1,560 Climbing Cleveland Center
06:13AM 42.3172 -78.6708 169° South 330 380 16,300 1,200 Climbing Cleveland Center
06:14AM 42.2250 -78.6483 170° South 336 387 17,500 1,200 Climbing Cleveland Center
06:15AM 42.1225 -78.6264 171° South 341 392 18,700 900 Climbing Cleveland Center
06:16AM 42.0289 -78.6236 179° South 336 387 19,400 900 Climbing Cleveland Center
06:17AM 41.9361 -78.5733 158° South 341 392 20,500 1,200 Climbing Cleveland Center
06:18AM 41.8436 -78.5206 157° South 352 405 21,900 1,080 Climbing Cleveland Center
06:19AM 41.7486 -78.4653 157° South 359 413 22,700 360 Climbing Cleveland Center
06:21AM 41.5803 -78.3700 157° South 386 444 23,000 60 Climbing New York Center
06:22AM 41.4836 -78.3175 158° South 386 444 23,000  Level New York Center
06:23AM 41.3772 -78.2531 156° South 381 438 23,000  Level New York Center
06:24AM 41.2808 -78.1981 157° South 381 438 23,000  Level New York Center
06:25AM 41.1861 -78.1436 157° South 381 438 23,000  Level New York Center
06:26AM 41.0894 -78.0919 158° South 381 438 23,000  Level New York Center
06:27AM 40.9925 -78.0375 157° South 381 438 23,000  Level New York Center
06:28AM 40.9008 -77.9700 151° Southeast 386 444 23,000 -660 Level New York Center
06:29AM 40.8303 -77.8636 131° Southeast 379 436 21,700 -1,440 Descending New York Center
06:30AM 40.7614 -77.7581 131° Southeast 379 436 20,200 -1,380 Descending New York Center
06:31AM 40.6925 -77.6550 131° Southeast 379 436 19,000 -600 Descending New York Center
06:32AM 40.6233 -77.5525 132° Southeast 379 436 19,000  Level New York Center
06:33AM 40.5581 -77.4531 131° Southeast 379 436 19,000  Level New York Center
06:34AM 40.4792 -77.3361 132° Southeast 387 445 19,000  Level New York Center
06:35AM 40.4136 -77.2372 131° Southeast 387 445 19,000  Level New York Center
06:36AM 40.3586 -77.1014 118° Southeast 387 445 19,000  Level New York Center
06:37AM 40.3353 -76.9875 105° East 369 425 19,000 -300 Level New York Center
06:38AM 40.3083 -76.8653 106° East 361 415 18,500 -960 Descending New York Center
06:39AM 40.2869 -76.7572 105° East 334 384 17,200 -1,260 Descending New York Center
06:40AM 40.2672 -76.6494 103° East 309 356 16,000 -1,320 Descending New York Center
06:41AM 40.2456 -76.5389 104° East 295 339 14,500 -1,320 Descending New York Center
06:42AM 40.2236 -76.4336 105° East 290 334 13,400 -1,260 Descending New York Center
06:43AM 40.2033 -76.3342 105° East 285 328 12,100 -1,200 Descending New York Center
06:44AM 40.1847 -76.2375 104° East 285 328 11,000 -1,140 Descending New York Center
06:45AM 40.1639 -76.1489 107° East 285 328 9,900 -1,260 Descending New York Center
06:46AM 40.1436 -76.0469 105° East 275 316 8,600 -1,020 Descending New York Center
06:47AM 40.1369 -75.9622 96° East 264 304 7,900 -300 Descending New York Center
06:48AM 40.1497 -75.8572 81° East 264 304 8,000  Climbing New York Center
06:49AM 40.1658 -75.7714 76° East 264 304 8,000  Level New York Center
06:50AM 40.2006 -75.6925 60° Northeast 257 296 8,000 -60 Level New York Center
06:51AM 40.2397 -75.6000 61° Northeast 257 296 7,900 -60 Descending New York Center
06:52AM 40.2744 -75.5156 62° Northeast 257 296 7,900  Level New York Center
06:53AM 40.3008 -75.4275 69° East 257 296 7,900 -360 Level New York Center
06:54AM 40.2553 -75.3672 135° Southeast 216 249 7,200 -900 Descending New York Center
06:55AM 40.1944 -75.3225 151° Southeast 246 283 6,100 -660 Descending New York Center
06:56AM 40.1297 -75.2719 149° Southeast 241 277 6,000 -60 Descending New York Center
06:57AM 40.0794 -75.2281 146° Southeast 236 272 6,000  Level New York Center
06:58AM 40.0167 -75.2000 161° South 228 262 6,000 -60 Level Philadelphia TRACON
06:59AM 39.9833 -75.1333 123° Southeast 234 269 5,900 -540 Descending Philadelphia TRACON
07:00AM 40.0000 -75.0667 72° East 231 266 5,000 -540 Descending Philadelphia TRACON
07:01AM 40.0167 -75.0000 72° East 206 237 5,000  Level Philadelphia TRACON
07:02AM 40.0333 -74.9167 75° East 219 252 5,000  Level Philadelphia TRACON
07:03AM 40.0333 -74.8333 90° East 215 247 5,000 -120 Level Philadelphia TRACON
07:04AM 39.9833 -74.8167 166° South 202 232 4,800 -540 Descending Philadelphia TRACON
07:05AM 39.9500 -74.8500 217° Southwest 179 206 4,000 -420 Descending Philadelphia TRACON
07:06AM 39.9333 -74.9333 255° West 170 196 4,000 -180 Level Philadelphia TRACON
07:07AM 39.9167 -74.9833 247° West 172 198 3,700 -660 Descending Philadelphia TRACON
07:08AM 39.9167 -75.0500 270° West 175 201 2,700 -960 Descending Philadelphia TRACON
07:09AM 39.9000 -75.1000 247° West 179 206 1,900 -900 Descending Philadelphia TRACON